Wetbulb
71.48 71.14 71.13 70.75 70.20 68.78 68.28 68.10 67.80 67.55 67.21 67.97 68.43 68.34 69.36 68.06 66.24 66.22 67.66 67.62 70.33 70.30 69.65 68.96 68.78 68.12 67.42 66.50 66.23 66.09 65.87 65.64 65.76
70.65 70.33 70.62 70.57 69.94 68.94 68.27 68.20 68.02 67.97 68.29 68.60 68.45 68.08 67.80 66.66 65.64 65.85 66.15 66.99 69.34 69.49 69.11 68.46 67.80 67.05 66.44 66.17 66.21 66.11 66.44 66.23 65.16
70.19 70.32 70.12 70.01 69.82 68.58 68.71 68.61 68.46 68.55 68.57 68.48 68.57 68.60 67.39 66.40 65.32 64.86 64.70 68.19 68.62 68.40 67.82 67.30 66.72 66.49 65.82 65.89 65.59 65.84 65.08 64.90 66.11
69.40 69.59 69.44 69.75 70.14 69.40 69.48 69.03 68.93 68.63 68.38 68.24 68.22 67.40 66.55 64.87 64.76 64.77 64.20 67.36 67.84 67.48 66.73 66.67 65.91 65.82 65.27 65.30 65.71 65.29 65.43 65.69 64.82
68.52 68.03 68.48 69.23 69.40 69.29 69.03 69.12 69.09 68.41 68.34 67.97 67.45 66.29 65.07 63.50 63.96 64.45 65.20 66.59 66.26 66.28 66.21 65.69 65.17 65.43 65.34 64.98 65.23 65.09 63.98 63.65 63.48
63.85 64.51 66.53 68.03 68.56 69.21 68.91 68.33 67.65 66.92 66.29 66.85 66.00 64.48 62.95 62.69 62.88 63.89 66.70 66.06 65.91 65.32 64.95 65.09 64.43 65.22 64.68 64.40 63.83 63.04 63.09 62.74 62.50
62.74 63.32 65.23 66.95 67.27 68.11 68.24 67.21 66.28 63.99 62.36 63.06 63.62 62.58 62.27 61.52 61.95 63.41 66.32 65.99 66.06 65.48 65.00 64.94 64.67 63.99 63.25 63.08 62.52 62.73 62.07 61.73 61.82
62.61 63.05 62.99 63.44 63.83 65.04 64.91 63.97 61.32 58.59 58.02 60.76 62.13 61.94 61.15 60.84 61.62 63.43 65.94 65.34 65.42 65.18 64.78 63.73 63.79 63.48 62.90 62.25 62.18 61.63 61.47 61.47 60.83
60.82 61.85 62.17 61.65 62.56 62.28 61.97 60.57 59.28 60.20 58.15 56.65 57.68 61.54 60.84 60.45 61.03 62.53 64.04 64.95 64.54 64.48 64.65 64.29 63.70 63.31 62.75 62.09 61.59 61.22 60.81 59.65 59.09
59.46 59.40 60.16 62.31 62.96 60.40 59.33 59.16 59.67 57.91 57.28 56.45 56.11 57.12 58.96 59.98 60.33 59.73 62.03 63.99 64.48 64.37 64.15 63.91 63.04 62.06 61.31 61.51 61.18 59.94 59.06 58.39 58.12
58.72 58.39 59.35 59.90 61.69 61.04 60.20 58.76 58.34 56.40 56.50 55.77 55.47 55.67 57.62 58.23 58.85 58.33 59.76 62.87 64.08 64.11 63.94 62.91 62.41 61.84 62.02 61.06 59.77 58.42 57.97 57.66 57.45
58.49 58.11 58.06 59.46 60.18 61.46 60.47 59.34 57.76 56.32 56.91 55.40 55.23 55.68 56.61 58.29 57.77 58.32 57.94 60.45 62.27 63.53 63.07 62.28 61.72 62.22 61.24 60.10 58.43 57.73 57.15 56.98 56.74
58.34 57.87 56.82 58.30 59.77 58.80 58.99 58.43 56.50 55.58 55.16 53.81 53.86 54.51 55.78 58.30 58.90 59.34 59.16 58.09 58.95 62.10 63.27 62.07 62.14 61.42 60.25 59.11 57.69 56.89 56.02 55.83 55.51
56.89 58.00 56.74 56.74 57.99 55.75 58.28 57.82 55.79 54.72 54.29 54.07 53.56 53.92 54.14 55.23 59.59 58.76 58.88 59.08 57.85 58.21 61.28 61.51 61.65 60.79 59.36 58.48 57.28 56.32 55.37 54.80 54.37
58.31 56.82 58.16 57.37 54.89 54.26 55.59 56.30 55.66 55.33 54.09 54.73 53.83 53.14 53.91 54.24 53.94 56.02 58.43 59.09 59.94 56.76 57.89 56.98 57.19 59.85 59.08 57.62 56.80 55.78 54.82 54.10 53.29
55.41 54.44 54.17 55.79 53.62 53.41 54.36 54.87 54.57 54.84 53.48 51.30 50.86 51.33 52.01 52.43 53.25 54.82 55.87 56.74 56.86 56.79 56.17 55.79 53.15 55.31 58.70 56.90 55.75 55.42 54.55 53.73 52.50
54.25 52.60 51.80 52.46 52.35 52.56 53.15 54.33 53.09 52.55 53.04 49.31 48.10 45.33 47.41 49.64 51.65 52.33 54.61 54.90 56.02 56.09 55.66 55.77 53.60 50.49 49.64 50.68 55.15 54.39 54.31 53.60 52.24
52.56 52.06 50.90 50.67 51.12 50.98 52.24 53.53 52.85 50.05 50.63 51.28 48.35 44.33 42.84 45.45 48.74 50.43 51.17 51.95 53.52 54.86 54.36 54.18 53.22 50.68 48.87 51.04 51.51 53.73 53.15 52.97 52.11
51.79 51.05 50.59 50.11 50.68 50.84 51.58 53.72 53.39 51.84 49.54 49.89 51.88 49.87 48.62 43.72 42.08 47.27 48.75 49.57 50.47 50.94 51.53 51.67 50.24 50.03 48.33 48.78 48.53 51.65 51.19 51.36 51.23
52.03 51.32 50.62 50.52 50.61 50.80 51.74 51.41 52.36 52.92 51.25 49.47 49.07 48.65 48.63 48.65 46.26 42.68 43.74 45.82 46.88 48.52 49.32 48.72 47.47 48.10 47.19 45.53 47.55 51.08 50.30 50.83 51.20
MSLP
1017.74 1018.00 1018.29 1018.64 1018.94 1019.37 1019.66 1019.86 1020.05 1020.28 1020.45 1020.60 1020.76 1020.95 1020.96 1021.12 1021.52 1021.84 1021.94 1022.01 1022.02 1022.25 1022.52 1022.80 1022.89 1023.01 1023.25 1023.31 1023.40 1023.53 1023.84 1023.85 1023.88
1018.06 1018.39 1018.61 1018.91 1019.20 1019.53 1019.86 1020.15 1020.37 1020.57 1020.76 1020.95 1021.12 1021.19 1021.34 1021.53 1021.95 1022.36 1022.37 1022.43 1022.56 1022.70 1022.90 1023.07 1023.32 1023.54 1023.63 1023.68 1023.89 1024.12 1024.27 1024.30 1024.27
1018.35 1018.65 1018.90 1019.14 1019.39 1019.76 1020.05 1020.36 1020.64 1020.93 1021.13 1021.36 1021.36 1021.56 1021.78 1022.04 1022.40 1022.70 1022.95 1022.97 1023.15 1023.28 1023.41 1023.60 1023.71 1023.84 1023.95 1024.19 1024.46 1024.57 1024.65 1024.69 1024.92
1018.59 1018.83 1019.10 1019.29 1019.57 1019.92 1020.25 1020.55 1020.80 1021.17 1021.40 1021.64 1021.76 1022.06 1022.34 1022.53 1022.83 1023.10 1023.42 1023.51 1023.60 1023.73 1023.75 1023.95 1024.03 1024.19 1024.39 1024.71 1024.89 1025.04 1025.17 1025.30 1025.41
1018.70 1018.98 1019.27 1019.51 1019.84 1020.07 1020.50 1020.73 1021.03 1021.37 1021.54 1021.87 1022.13 1022.44 1022.65 1022.91 1023.35 1023.61 1023.69 1023.80 1023.92 1024.07 1024.17 1024.23 1024.39 1024.73 1025.02 1025.21 1025.41 1025.56 1025.58 1025.76 1025.95
1018.84 1019.15 1019.55 1019.75 1020.05 1020.34 1020.71 1021.00 1021.38 1021.75 1021.79 1022.04 1022.43 1022.62 1022.96 1023.21 1023.57 1023.87 1023.97 1024.16 1024.37 1024.48 1024.58 1024.75 1024.85 1025.21 1025.46 1025.70 1025.87 1025.94 1026.08 1026.25 1026.36
1019.05 1019.38 1019.70 1019.81 1020.23 1020.60 1020.95 1021.11 1021.71 1022.01 1022.16 1022.34 1022.54 1022.72 1023.17 1023.48 1023.79 1024.14 1024.31 1024.37 1024.62 1024.88 1025.06 1025.28 1025.44 1025.66 1025.94 1026.11 1026.20 1026.47 1026.55 1026.62 1026.77
1019.40 1019.73 1019.91 1020.16 1020.43 1020.91 1021.20 1021.36 1021.78 1022.05 1022.25 1022.28 1022.61 1022.82 1023.20 1023.57 1023.99 1024.50 1024.59 1024.73 1024.98 1025.20 1025.46 1025.64 1025.87 1026.04 1026.28 1026.33 1026.53 1026.71 1026.86 1027.01 1027.30
1019.72 1019.98 1020.15 1020.46 1020.71 1021.16 1021.36 1021.40 1021.68 1021.88 1022.11 1022.28 1022.56 1022.83 1023.29 1023.73 1024.19 1024.77 1024.85 1024.96 1025.12 1025.44 1025.75 1025.97 1026.16 1026.34 1026.49 1026.60 1026.78 1026.98 1027.22 1027.42 1027.57
1020.01 1020.32 1020.33 1020.41 1020.73 1021.24 1021.47 1021.42 1021.34 1021.69 1022.04 1022.22 1022.38 1022.56 1023.18 1023.73 1024.10 1024.91 1025.10 1025.21 1025.32 1025.55 1025.76 1026.14 1026.32 1026.49 1026.65 1026.93 1027.20 1027.45 1027.55 1027.70 1027.82
1020.16 1020.43 1020.55 1020.66 1020.81 1021.10 1021.22 1021.38 1021.43 1021.95 1022.14 1022.45 1022.57 1022.81 1023.34 1023.81 1024.13 1024.84 1025.22 1025.37 1025.53 1025.73 1025.90 1026.11 1026.40 1026.62 1026.98 1027.17 1027.49 1027.72 1027.92 1028.04 1028.15
1020.11 1020.44 1020.65 1020.61 1020.81 1021.05 1021.11 1021.22 1021.49 1021.98 1022.29 1022.73 1022.87 1022.98 1023.49 1023.84 1024.28 1024.83 1025.35 1025.51 1025.67 1025.81 1026.09 1026.44 1026.48 1026.77 1027.09 1027.53 1027.81 1028.01 1028.14 1028.27 1028.36
1019.95 1020.34 1020.75 1020.83 1020.79 1021.13 1021.36 1021.18 1021.82 1022.31 1022.74 1023.13 1023.27 1023.31 1023.32 1023.91 1024.13 1024.61 1025.18 1025.54 1025.82 1025.98 1026.02 1026.31 1026.71 1026.94 1027.21 1027.55 1027.84 1028.08 1028.28 1028.42 1028.51
1019.94 1020.36 1020.66 1020.79 1020.78 1021.00 1021.09 1021.45 1021.93 1022.51 1022.99 1023.35 1023.60 1023.60 1023.73 1023.92 1023.89 1024.48 1024.87 1025.21 1025.59 1026.05 1026.26 1026.38 1026.65 1027.04 1027.37 1027.55 1027.80 1028.06 1028.30 1028.52 1028.66
1019.76 1020.27 1020.55 1020.73 1021.06 1021.37 1021.53 1021.68 1022.00 1022.55 1023.03 1023.44 1023.92 1024.05 1024.01 1024.01 1024.20 1024.35 1024.50 1024.90 1025.34 1025.70 1026.14 1026.65 1026.79 1026.91 1027.31 1027.55 1027.79 1028.10 1028.28 1028.48 1028.70
1019.68 1020.10 1020.23 1020.53 1021.09 1021.45 1021.66 1021.89 1022.33 1022.68 1022.90 1023.83 1024.51 1024.59 1024.57 1024.57 1024.42 1024.31 1024.38 1024.76 1025.36 1025.71 1026.00 1026.33 1027.02 1027.05 1027.14 1027.45 1027.68 1027.96 1028.23 1028.45 1028.72
1019.65 1020.22 1020.52 1020.83 1021.27 1021.52 1021.64 1021.74 1022.45 1022.87 1022.98 1024.02 1024.77 1025.38 1025.30 1024.89 1024.77 1024.73 1024.46 1024.60 1024.99 1025.60 1025.88 1026.00 1026.54 1027.01 1027.29 1027.48 1027.64 1027.80 1028.02 1028.26 1028.49
1019.76 1020.22 1020.58 1020.88 1021.26 1021.55 1021.66 1021.81 1022.12 1022.87 1023.19 1023.37 1023.94 1024.79 1024.83 1024.95 1024.81 1024.73 1024.79 1024.85 1025.00 1025.15 1025.60 1025.83 1026.20 1026.61 1026.94 1027.21 1027.45 1027.65 1027.80 1027.97 1028.17
1019.85 1020.19 1020.43 1020.80 1021.17 1021.54 1021.60 1021.66 1022.09 1022.56 1023.19 1023.40 1023.21 1023.39 1023.66 1024.33 1025.14 1024.89 1024.77 1024.80 1025.00 1025.07 1025.32 1025.50 1025.82 1026.11 1026.49 1026.73 1027.05 1027.29 1027.66 1027.82 1027.97
1019.80 1020.05 1020.19 1020.45 1020.74 1021.02 1021.38 1021.60 1021.95 1022.29 1022.76 1023.01 1023.14 1023.22 1023.41 1023.57 1023.93 1024.61 1024.73 1024.80 1024.51 1024.58 1024.73 1025.02 1025.37 1025.58 1026.05 1026.40 1026.69 1026.94 1027.36 1027.53 1027.64
Wind_Speed
15 16 18 19 18 17 16 16 16 16 15 13 11 9 9 14 10 8 10 10 22 22 22 22 22 21 21 20 20 21 20 21 21
14 15 16 16 17 16 15 15 15 15 14 12 9 7 7 6 9 8 7 11 18 20 21 21 21 19 19 21 21 20 20 21 20
14 16 16 16 16 15 15 16 15 14 12 10 10 12 11 8 11 10 7 14 16 16 18 18 18 18 19 19 19 20 19 20 20
15 15 15 14 15 15 13 16 18 14 11 11 14 13 11 7 7 9 5 13 15 15 16 17 17 18 18 18 18 18 19 19 19
14 12 12 14 15 14 15 15 15 14 12 11 13 13 12 10 8 5 6 12 14 14 16 16 17 19 18 18 18 18 18 18 18
9 9 10 12 13 15 15 17 16 11 8 11 8 11 6 7 6 4 13 14 14 14 15 16 17 18 18 18 17 16 17 17 16
6 7 10 11 12 14 15 18 14 8 3 3 5 6 7 6 6 4 12 15 16 16 17 17 17 17 16 15 16 17 15 15 15
4 3 3 4 8 5 8 10 5 7 4 3 4 6 7 6 6 6 11 16 15 16 16 15 16 17 15 15 15 14 14 15 15
3 3 3 4 4 6 5 3 6 7 7 6 6 6 6 5 5 6 11 13 15 15 16 16 16 15 15 14 14 14 14 13 14
4 2 2 2 5 5 4 4 4 5 4 4 3 3 9 9 7 4 8 10 15 15 15 15 14 14 12 14 14 13 13 13 13
4 1 2 3 3 4 4 4 5 4 5 4 3 3 9 7 9 5 5 10 11 15 14 14 13 13 13 13 13 12 12 12 12
5 2 1 3 1 4 4 4 4 5 4 4 3 3 8 8 8 7 3 6 11 13 13 12 12 13 12 12 11 11 11 11 11
5 3 2 3 3 4 3 3 4 5 5 3 2 2 3 8 10 8 6 4 3 7 13 14 13 12 13 12 11 11 10 10 9
6 5 4 5 2 1 1 2 4 4 3 4 3 3 2 4 6 8 7 7 6 4 7 11 12 13 12 11 11 10 9 9 8
5 6 7 5 4 2 2 3 2 4 5 4 4 2 1 1 3 6 6 7 7 6 6 4 5 12 13 12 11 10 9 8 7
4 2 1 3 4 4 4 3 4 2 4 4 3 3 4 3 2 2 4 6 6 7 6 6 3 4 12 13 12 10 9 8 6
4 3 2 3 2 4 4 4 3 2 4 4 4 1 4 3 4 2 2 5 4 7 6 6 8 5 4 6 11 11 10 9 7
6 6 4 5 3 4 3 3 6 3 2 7 5 3 4 3 3 5 3 3 3 4 5 6 8 8 6 8 8 10 12 11 9
6 5 6 6 4 5 4 4 4 5 5 1 5 2 4 4 1 2 4 4 5 6 4 5 6 7 5 10 12 12 12 12 11
6 6 6 6 5 6 6 5 5 4 5 4 2 2 2 2 3 3 4 3 5 5 6 6 5 6 6 6 9 16 16 15 13
Wind_Direction
128 120 113 116 118 114 113 111 111 110 110 113 98 75 79 87 80 79 94 99 93 97 101 97 94 93 92 90 85 84 87 84 79
134 127 121 120 115 117 120 116 116 116 115 108 79 61 38 92 101 95 86 86 97 97 95 93 92 93 92 90 86 88 84 85 86
139 134 128 125 126 127 131 127 123 118 121 109 87 79 83 74 83 81 76 92 95 98 99 99 99 97 95 92 91 90 84 86 83
146 136 135 130 139 134 142 142 132 127 125 101 96 85 87 73 89 95 86 96 102 106 105 104 103 99 95 90 94 92 87 84 83
137 125 128 124 132 128 132 117 119 128 130 115 104 103 80 82 86 86 97 102 108 108 109 109 105 97 95 93 87 87 86 84 81
124 130 135 139 140 131 129 117 107 98 112 116 93 95 97 92 90 96 104 109 107 108 103 101 105 105 101 97 92 94 88 87 78
99 122 156 147 136 132 132 120 122 110 122 127 115 109 114 97 96 88 111 115 111 108 109 109 108 105 105 104 100 92 89 85 80
110 118 120 121 120 133 129 130 144 148 154 183 134 124 115 114 99 105 116 115 118 117 113 115 112 111 110 112 103 100 96 87 78
99 108 153 140 129 138 154 170 179 168 168 190 141 142 134 123 113 115 122 126 129 129 124 122 119 120 120 117 111 104 92 91 83
94 93 78 116 129 135 178 197 161 122 144 120 118 119 131 129 123 121 129 133 135 137 137 132 133 130 129 119 108 102 98 92 85
113 122 101 75 124 157 191 187 125 121 108 92 113 156 115 123 127 127 136 147 147 143 146 142 146 134 131 117 112 105 94 89 85
133 154 4 152 174 172 213 195 120 111 100 113 96 84 116 129 119 129 142 147 157 155 150 146 143 141 127 121 114 105 101 95 90
137 149 222 278 200 169 204 146 118 125 126 124 131 103 99 145 147 140 158 157 161 178 160 155 154 142 136 134 125 118 113 105 99
141 158 233 254 171 147 300 126 127 131 134 145 140 126 115 129 147 150 165 167 157 148 156 158 153 150 150 145 138 132 125 117 107
171 182 200 203 135 181 247 147 136 149 154 120 109 108 125 94 135 171 172 171 143 142 145 131 154 153 160 157 153 149 142 135 123
163 166 152 135 147 193 205 161 154 100 124 99 58 22 26 1 284 255 153 149 146 154 156 141 146 157 164 168 169 167 161 152 140
151 163 180 173 156 199 210 153 122 128 138 133 109 156 328 316 274 282 206 173 158 165 177 161 162 154 148 171 178 183 179 174 167
167 188 181 184 182 204 206 164 151 138 183 159 156 147 210 157 246 225 210 187 182 174 175 177 170 168 169 175 174 184 192 192 185
182 192 185 183 185 202 199 184 161 137 186 239 252 195 145 176 160 263 216 207 202 189 191 186 190 173 169 175 175 182 194 200 201
193 204 197 189 183 195 192 188 187 179 174 183 194 200 219 206 147 187 218 228 208 200 187 191 188 188 170 177 187 186 199 208 209